TVF57LK LFPO-LQSA

Flight info

Callsign TVF57LK
Flight time 1h 39m
Altitude 33000
Route BUBLI DCT LUVAL DCT BEGAR DCT TRA DCT GAMSA DCT GEDSO DCT VEKEN DCT GORPA DCT OKSIG DCT MARIL L608 BOSNA
Aircraft B738/M-SDFGHIJ1RWXY/LB1

Departure

Time 2026-04-21 09:43
Airport Paris-Orly Airport (LFPO)

Arrival

Time 2026-04-21 11:23
Airport Sarajevo International Airport (LQSA)
Time Latitude Longitude Altitude Speed Heading
2026-04-21 09:27 48.72609 2.36366 300 ft 0 kts 348°
2026-04-21 09:37 48.72600 2.36368 300 ft 4 kts 340°
2026-04-21 09:37 48.72585 2.36389 300 ft 4 kts 280°
2026-04-21 09:37 48.72580 2.36408 300 ft 2 kts 344°
2026-04-21 09:38 48.72556 2.36421 302 ft 4 kts 324°
2026-04-21 09:38 48.72545 2.36445 297 ft 3 kts 255°
2026-04-21 09:38 48.72552 2.36482 301 ft 4 kts 255°
2026-04-21 09:38 48.72554 2.36495 302 ft 0 kts 255°
2026-04-21 09:40 48.72552 2.36483 301 ft 3 kts 255°
2026-04-21 09:40 48.72542 2.36425 300 ft 8 kts 255°
2026-04-21 09:41 48.72524 2.36325 298 ft 12 kts 255°
2026-04-21 09:41 48.72467 2.36229 300 ft 15 kts 175°
2026-04-21 09:41 48.72362 2.36274 298 ft 16 kts 162°
2026-04-21 09:41 48.72270 2.36349 300 ft 15 kts 131°
2026-04-21 09:42 48.72217 2.36481 300 ft 14 kts 118°
2026-04-21 09:42 48.72136 2.36553 302 ft 14 kts 162°
2026-04-21 09:42 48.72084 2.36630 301 ft 9 kts 77°
2026-04-21 09:42 48.72084 2.36636 302 ft 4 kts 76°
2026-04-21 09:43 48.72159 2.37036 299 ft 75 kts 73°
2026-04-21 09:43 48.72355 2.38086 301 ft 133 kts 73°
2026-04-21 09:43 48.72614 2.39598 638 ft 155 kts 75°
2026-04-21 09:43 48.72875 2.41184 1415 ft 157 kts 72°
2026-04-21 09:44 48.73181 2.42788 2189 ft 158 kts 73°
2026-04-21 09:44 48.73501 2.44417 3025 ft 161 kts 71°
2026-04-21 09:44 48.73818 2.46052 3825 ft 168 kts 74°
2026-04-21 09:44 48.74048 2.47941 4120 ft 197 kts 86°
2026-04-21 09:45 48.74101 2.50144 4374 ft 220 kts 85°
2026-04-21 09:45 48.74192 2.52596 4662 ft 243 kts 85°
2026-04-21 09:45 48.74294 2.55189 5427 ft 249 kts 84°
2026-04-21 09:45 48.74485 2.57819 6232 ft 254 kts 81°
2026-04-21 09:46 48.74715 2.60500 6987 ft 259 kts 81°
2026-04-21 09:46 48.74943 2.63199 7727 ft 265 kts 80°
2026-04-21 09:46 48.75173 2.65999 8433 ft 272 kts 80°
2026-04-21 09:46 48.75407 2.68890 9096 ft 280 kts 80°
2026-04-21 09:47 48.75639 2.71851 9813 ft 286 kts 80°
2026-04-21 09:47 48.75873 2.74882 10448 ft 294 kts 80°
2026-04-21 09:47 48.76121 2.78088 10662 ft 318 kts 81°
2026-04-21 09:47 48.76384 2.81516 10987 ft 335 kts 81°
2026-04-21 09:48 48.76653 2.85072 11593 ft 342 kts 81°
2026-04-21 09:48 48.76925 2.88675 12292 ft 347 kts 80°
2026-04-21 09:48 48.77202 2.92341 12971 ft 352 kts 80°
2026-04-21 09:48 48.77481 2.96048 13151 ft 356 kts 80°
2026-04-21 09:49 48.77794 2.99765 13150 ft 354 kts 77°
2026-04-21 09:49 48.78215 3.03428 13161 ft 352 kts 76°
2026-04-21 09:49 48.78672 3.07082 13200 ft 352 kts 76°
2026-04-21 09:49 48.79131 3.10731 13176 ft 352 kts 76°
2026-04-21 09:50 48.79582 3.14399 13290 ft 356 kts 76°
2026-04-21 09:50 48.79729 3.15602 13472 ft 357 kts 76°
2026-04-21 09:50 48.80913 3.25533 15267 ft 365 kts 76°
2026-04-21 09:51 48.81363 3.29354 15850 ft 371 kts 76°
2026-04-21 09:51 48.81820 3.33248 16430 ft 377 kts 75°
2026-04-21 09:51 48.82253 3.37204 17011 ft 384 kts 80°
2026-04-21 09:51 48.82222 3.41309 17564 ft 395 kts 91°
2026-04-21 09:52 48.82045 3.44069 17945 ft 399 kts 92°
2026-04-21 09:52 48.81731 3.48279 18499 ft 405 kts 93°
2026-04-21 09:52 48.81405 3.52545 19011 ft 410 kts 92°
2026-04-21 09:52 48.81088 3.56866 19493 ft 414 kts 92°
2026-04-21 09:53 48.80783 3.61237 19982 ft 419 kts 92°
2026-04-21 09:53 48.80487 3.65656 20474 ft 423 kts 91°
2026-04-21 09:53 48.80194 3.70126 20955 ft 428 kts 91°
2026-04-21 09:53 48.79901 3.74641 21427 ft 433 kts 91°
2026-04-21 09:54 48.79603 3.79218 21896 ft 437 kts 91°
2026-04-21 09:54 48.79301 3.83832 22355 ft 442 kts 91°
2026-04-21 09:54 48.78993 3.88494 22804 ft 447 kts 91°
2026-04-21 09:54 48.78679 3.93200 23251 ft 451 kts 91°
2026-04-21 09:55 48.78360 3.97960 23695 ft 456 kts 91°
2026-04-21 09:55 48.78036 4.02763 24074 ft 459 kts 91°
2026-04-21 09:55 48.77709 4.07590 24469 ft 462 kts 91°
2026-04-21 09:55 48.77337 4.12453 24861 ft 467 kts 97°
2026-04-21 09:56 48.76275 4.17154 25186 ft 478 kts 118°
2026-04-21 09:56 48.74439 4.21353 25596 ft 480 kts 126°
2026-04-21 09:56 48.72491 4.25415 25967 ft 482 kts 127°
2026-04-21 09:56 48.70494 4.29522 26302 ft 486 kts 127°
2026-04-21 09:57 48.68488 4.33665 26651 ft 489 kts 126°
2026-04-21 09:57 48.66478 4.37853 27019 ft 492 kts 126°
2026-04-21 09:57 48.64472 4.42066 27337 ft 495 kts 126°
2026-04-21 09:57 48.62457 4.46321 27657 ft 499 kts 126°
2026-04-21 09:58 48.60434 4.50600 27971 ft 502 kts 126°
2026-04-21 09:58 48.58398 4.54904 28280 ft 505 kts 126°
2026-04-21 09:58 48.56349 4.59230 28579 ft 508 kts 126°
2026-04-21 09:58 48.54288 4.63570 28884 ft 509 kts 126°
2026-04-21 09:59 48.52248 4.67857 29253 ft 510 kts 126°
2026-04-21 09:59 48.50172 4.72211 29555 ft 513 kts 126°
2026-04-21 09:59 48.48081 4.76588 29849 ft 516 kts 126°
2026-04-21 09:59 48.45970 4.81000 30041 ft 521 kts 126°
2026-04-21 10:00 48.43849 4.85428 30335 ft 522 kts 126°
2026-04-21 10:00 48.41727 4.89850 30693 ft 520 kts 126°
2026-04-21 10:00 48.39612 4.94250 31124 ft 518 kts 126°
2026-04-21 10:00 48.37504 4.98629 31557 ft 515 kts 126°
2026-04-21 10:01 48.35407 5.02982 31965 ft 512 kts 126°
2026-04-21 10:01 48.33317 5.07309 32346 ft 510 kts 126°
2026-04-21 10:01 48.31281 5.11663 32728 ft 507 kts 121°
2026-04-21 10:01 48.29635 5.16314 33146 ft 504 kts 112°
2026-04-21 10:02 48.27627 5.26330 33148 ft 504 kts 98°
2026-04-21 10:02 48.26902 5.31471 33110 ft 503 kts 98°
2026-04-21 10:03 48.25459 5.41659 33113 ft 497 kts 98°
2026-04-21 10:03 48.23967 5.51816 33105 ft 498 kts 99°
2026-04-21 10:04 48.22438 5.61955 33123 ft 498 kts 99°
2026-04-21 10:04 48.20892 5.72092 33121 ft 499 kts 99°
2026-04-21 10:05 48.19337 5.82236 33124 ft 499 kts 99°
2026-04-21 10:05 48.17782 5.92324 33127 ft 500 kts 99°
2026-04-21 10:06 48.16207 6.02481 33135 ft 501 kts 99°
2026-04-21 10:06 48.14619 6.12660 33127 ft 501 kts 99°
2026-04-21 10:07 48.13023 6.22821 33117 ft 502 kts 99°
2026-04-21 10:07 48.11416 6.32998 33104 ft 503 kts 99°
2026-04-21 10:08 48.09798 6.43179 33122 ft 503 kts 99°
2026-04-21 10:08 48.08165 6.53382 33091 ft 504 kts 100°
2026-04-21 10:09 48.06527 6.63563 33085 ft 504 kts 100°
2026-04-21 10:09 48.04878 6.73744 33099 ft 504 kts 100°
2026-04-21 10:10 48.03221 6.83916 33122 ft 504 kts 100°
2026-04-21 10:10 48.01565 6.94016 33112 ft 503 kts 100°
2026-04-21 10:11 47.99889 7.04180 33112 ft 502 kts 100°
2026-04-21 10:11 47.98211 7.14301 33133 ft 503 kts 100°
2026-04-21 10:12 47.96521 7.24433 33145 ft 502 kts 101°
2026-04-21 10:12 47.94824 7.34544 33141 ft 502 kts 101°
2026-04-21 10:13 47.93118 7.44651 33114 ft 502 kts 101°
2026-04-21 10:13 47.91406 7.54746 33103 ft 502 kts 101°
2026-04-21 10:14 47.89384 7.64655 33140 ft 504 kts 108°
2026-04-21 10:14 47.86852 7.74414 33100 ft 505 kts 110°
2026-04-21 10:15 47.84290 7.84173 33090 ft 505 kts 109°
2026-04-21 10:15 47.81784 7.93946 33099 ft 505 kts 109°
2026-04-21 10:16 47.79296 8.03728 33086 ft 506 kts 109°
2026-04-21 10:16 47.76798 8.13502 33088 ft 505 kts 109°
2026-04-21 10:17 47.74291 8.23251 33079 ft 505 kts 109°
2026-04-21 10:17 47.71778 8.32982 33080 ft 504 kts 109°
2026-04-21 10:18 47.69265 8.42680 33099 ft 502 kts 109°
2026-04-21 10:18 47.66915 8.52383 33108 ft 502 kts 106°
2026-04-21 10:19 47.64741 8.62222 33098 ft 502 kts 106°
2026-04-21 10:19 47.62548 8.72061 33089 ft 503 kts 106°
2026-04-21 10:20 47.60308 8.81891 33093 ft 503 kts 107°
2026-04-21 10:20 47.58044 8.91715 33083 ft 504 kts 107°
2026-04-21 10:21 47.55767 9.01550 33100 ft 505 kts 107°
2026-04-21 10:21 47.53481 9.11388 33086 ft 505 kts 107°
2026-04-21 10:22 47.51204 9.21146 33078 ft 505 kts 107°
2026-04-21 10:22 47.48901 9.30971 33085 ft 505 kts 107°
2026-04-21 10:23 47.46593 9.40776 33101 ft 504 kts 108°
2026-04-21 10:23 47.44280 9.50557 33112 ft 504 kts 108°
2026-04-21 10:24 47.41960 9.60332 33101 ft 504 kts 108°
2026-04-21 10:24 47.39939 9.70209 33103 ft 501 kts 100°
2026-04-21 10:25 47.38583 9.80272 33083 ft 499 kts 98°
2026-04-21 10:25 47.37288 9.90327 33008 ft 499 kts 98°
2026-04-21 10:26 47.35929 10.00350 33055 ft 498 kts 99°
2026-04-21 10:26 47.34521 10.10390 33041 ft 501 kts 99°
2026-04-21 10:27 47.33098 10.20401 33037 ft 503 kts 99°
2026-04-21 10:27 47.31654 10.30499 33030 ft 503 kts 99°
2026-04-21 10:28 47.30208 10.40570 33002 ft 502 kts 100°
2026-04-21 10:28 47.28756 10.50612 33035 ft 500 kts 100°
2026-04-21 10:29 47.27306 10.60585 33006 ft 500 kts 100°
2026-04-21 10:29 47.25840 10.70605 33011 ft 501 kts 101°
2026-04-21 10:30 47.24367 10.80603 33062 ft 500 kts 101°
2026-04-21 10:30 47.22884 10.90597 33045 ft 499 kts 101°
2026-04-21 10:31 47.21393 11.00587 33037 ft 499 kts 101°
2026-04-21 10:31 47.19896 11.10559 33039 ft 499 kts 101°
2026-04-21 10:32 47.18399 11.20462 33073 ft 500 kts 101°
2026-04-21 10:32 47.16884 11.30419 33089 ft 498 kts 101°
2026-04-21 10:33 47.15367 11.40330 33124 ft 495 kts 101°
2026-04-21 10:33 47.13840 11.50251 33097 ft 498 kts 101°
2026-04-21 10:34 47.12298 11.60204 33114 ft 500 kts 101°
2026-04-21 10:34 47.10738 11.70207 33053 ft 503 kts 102°
2026-04-21 10:35 47.09176 11.80170 33033 ft 504 kts 102°
2026-04-21 10:35 47.07232 11.90051 33054 ft 505 kts 115°
2026-04-21 10:36 47.04137 11.99297 33065 ft 505 kts 118°
2026-04-21 10:36 47.00949 12.08495 33064 ft 505 kts 117°
2026-04-21 10:37 46.97806 12.17705 33040 ft 504 kts 117°
2026-04-21 10:37 46.94720 12.26844 33029 ft 504 kts 117°
2026-04-21 10:38 46.91625 12.36007 33003 ft 500 kts 117°
2026-04-21 10:38 46.88537 12.45106 33033 ft 500 kts 117°
2026-04-21 10:39 46.85441 12.54189 33015 ft 499 kts 117°
2026-04-21 10:39 46.82339 12.63255 32988 ft 497 kts 117°
2026-04-21 10:40 46.79770 12.70742 32998 ft 496 kts 117°
2026-04-21 10:40 46.76654 12.79792 32987 ft 504 kts 117°
2026-04-21 10:41 46.73495 12.88938 32982 ft 504 kts 117°
2026-04-21 10:41 46.70330 12.98070 32974 ft 505 kts 117°
2026-04-21 10:42 46.67158 13.07190 32983 ft 504 kts 118°
2026-04-21 10:42 46.63989 13.16272 32996 ft 502 kts 118°
2026-04-21 10:43 46.60843 13.25258 32958 ft 501 kts 118°
2026-04-21 10:43 46.57675 13.34278 33010 ft 501 kts 118°
2026-04-21 10:44 46.54427 13.43278 33038 ft 502 kts 120°
2026-04-21 10:44 46.50978 13.52093 33030 ft 502 kts 122°
2026-04-21 10:45 46.47497 13.60875 33027 ft 502 kts 121°
2026-04-21 10:45 46.44029 13.69695 33039 ft 503 kts 121°
2026-04-21 10:46 46.40595 13.78463 33055 ft 503 kts 121°
2026-04-21 10:46 46.37120 13.87315 33023 ft 506 kts 121°
2026-04-21 10:47 46.33636 13.96160 33035 ft 505 kts 121°
2026-04-21 10:47 46.30145 14.04990 33028 ft 504 kts 121°
2026-04-21 10:48 46.26674 14.13738 33052 ft 505 kts 122°
2026-04-21 10:48 46.23170 14.22544 33049 ft 505 kts 122°
2026-04-21 10:49 46.19658 14.31339 33034 ft 506 kts 122°
2026-04-21 10:49 46.16137 14.40130 33055 ft 505 kts 122°
2026-04-21 10:50 46.12612 14.48903 33053 ft 506 kts 122°
2026-04-21 10:50 46.09079 14.57668 33046 ft 506 kts 122°
2026-04-21 10:51 46.05560 14.66373 33049 ft 505 kts 122°
2026-04-21 10:51 46.02015 14.75112 33044 ft 506 kts 122°
2026-04-21 10:52 45.98462 14.83844 33040 ft 504 kts 122°
2026-04-21 10:52 45.94913 14.92539 33043 ft 503 kts 122°
2026-04-21 10:53 45.91365 15.01203 33050 ft 503 kts 123°
2026-04-21 10:53 45.87815 15.09847 33051 ft 502 kts 123°
2026-04-21 10:54 45.84280 15.18427 33049 ft 502 kts 123°
2026-04-21 10:54 45.80724 15.27037 33057 ft 501 kts 123°
2026-04-21 10:55 45.77135 15.35628 33056 ft 501 kts 126°
2026-04-21 10:55 45.72966 15.43560 33046 ft 496 kts 132°
2026-04-21 10:56 45.68603 15.51209 33065 ft 497 kts 133°
2026-04-21 10:56 45.64243 15.58903 33065 ft 498 kts 132°
2026-04-21 10:57 45.59939 15.66601 33061 ft 500 kts 132°
2026-04-21 10:57 45.55603 15.74385 33059 ft 501 kts 132°
2026-04-21 10:58 45.51254 15.82171 33057 ft 502 kts 132°
2026-04-21 10:58 45.46894 15.89949 33053 ft 502 kts 132°
2026-04-21 10:59 45.42529 15.97711 33044 ft 501 kts 132°
2026-04-21 10:59 45.38165 16.05450 33045 ft 500 kts 132°
2026-04-21 11:00 45.33836 16.13106 33046 ft 499 kts 132°
2026-04-21 11:00 45.29487 16.20777 33048 ft 498 kts 132°
2026-04-21 11:00 45.27306 16.24614 32793 ft 499 kts 132°
2026-04-21 11:01 45.25126 16.28446 32531 ft 498 kts 132°
2026-04-21 11:01 45.22946 16.32272 32037 ft 497 kts 132°
2026-04-21 11:01 45.20772 16.36083 31492 ft 496 kts 132°
2026-04-21 11:02 45.16420 16.43697 30279 ft 498 kts 133°
2026-04-21 11:02 45.14239 16.47504 29665 ft 497 kts 133°
2026-04-21 11:02 45.12072 16.51284 29189 ft 491 kts 133°
2026-04-21 11:02 45.09925 16.55026 28708 ft 487 kts 133°
2026-04-21 11:03 45.07825 16.58680 28245 ft 482 kts 133°
2026-04-21 11:03 45.05716 16.62344 27788 ft 477 kts 133°
2026-04-21 11:03 45.03626 16.65969 27318 ft 473 kts 133°
2026-04-21 11:03 45.01554 16.69559 26858 ft 470 kts 133°
2026-04-21 11:04 44.99494 16.73121 26397 ft 466 kts 133°
2026-04-21 11:04 44.97451 16.76651 25943 ft 462 kts 134°
2026-04-21 11:04 44.95420 16.80155 25504 ft 459 kts 134°
2026-04-21 11:04 44.93404 16.83630 25054 ft 456 kts 134°
2026-04-21 11:05 44.91400 16.87080 24610 ft 453 kts 134°
2026-04-21 11:05 44.89407 16.90506 24138 ft 450 kts 133°
2026-04-21 11:05 44.87428 16.93906 23725 ft 447 kts 133°
2026-04-21 11:05 44.85460 16.97284 23207 ft 445 kts 133°
2026-04-21 11:06 44.83499 17.00642 22721 ft 441 kts 133°
2026-04-21 11:06 44.81522 17.03928 22254 ft 437 kts 134°
2026-04-21 11:06 44.79535 17.07145 21807 ft 433 kts 135°
2026-04-21 11:06 44.77559 17.10319 21381 ft 429 kts 135°
2026-04-21 11:07 44.75595 17.13474 20953 ft 426 kts 135°
2026-04-21 11:07 44.73676 17.16564 20536 ft 423 kts 134°
2026-04-21 11:07 44.71744 17.19681 20112 ft 421 kts 134°
2026-04-21 11:07 44.69826 17.22779 19690 ft 419 kts 134°
2026-04-21 11:08 44.67922 17.25853 19283 ft 416 kts 134°
2026-04-21 11:08 44.66027 17.28909 18857 ft 414 kts 134°
2026-04-21 11:08 44.64140 17.31947 18412 ft 412 kts 134°
2026-04-21 11:08 44.62262 17.34980 17956 ft 409 kts 134°
2026-04-21 11:09 44.60416 17.37996 17501 ft 406 kts 134°
2026-04-21 11:09 44.58589 17.40995 17079 ft 403 kts 134°
2026-04-21 11:09 44.56774 17.43974 16649 ft 400 kts 134°
2026-04-21 11:09 44.54973 17.46926 16232 ft 397 kts 133°
2026-04-21 11:10 44.53184 17.49852 15841 ft 394 kts 133°
2026-04-21 11:10 44.51404 17.52759 15428 ft 392 kts 133°
2026-04-21 11:10 44.49635 17.55644 15023 ft 389 kts 133°
2026-04-21 11:10 44.47875 17.58510 14626 ft 386 kts 133°
2026-04-21 11:11 44.46127 17.61354 14227 ft 384 kts 133°
2026-04-21 11:11 44.44391 17.64176 13830 ft 381 kts 132°
2026-04-21 11:11 44.42665 17.66979 13375 ft 379 kts 132°
2026-04-21 11:11 44.40950 17.69763 12954 ft 376 kts 132°
2026-04-21 11:12 44.39254 17.72510 12577 ft 371 kts 132°
2026-04-21 11:12 44.37564 17.75210 12151 ft 366 kts 136°
2026-04-21 11:12 44.35549 17.77290 11798 ft 357 kts 155°
2026-04-21 11:12 44.33353 17.78830 11416 ft 350 kts 156°
2026-04-21 11:13 44.31225 17.80313 11024 ft 342 kts 155°
2026-04-21 11:13 44.29124 17.81787 10661 ft 333 kts 155°
2026-04-21 11:13 44.27100 17.83221 10508 ft 319 kts 155°
2026-04-21 11:13 44.25166 17.84597 10357 ft 306 kts 155°
2026-04-21 11:14 44.23310 17.85923 10211 ft 292 kts 155°
2026-04-21 11:14 44.21536 17.87192 10107 ft 283 kts 155°
2026-04-21 11:14 44.19790 17.88438 10001 ft 281 kts 155°
2026-04-21 11:14 44.18028 17.89695 9726 ft 287 kts 155°
2026-04-21 11:15 44.16235 17.90974 9439 ft 290 kts 155°
2026-04-21 11:15 44.14449 17.92250 9137 ft 287 kts 155°
2026-04-21 11:15 44.12701 17.93498 8863 ft 285 kts 155°
2026-04-21 11:15 44.10941 17.94755 8579 ft 283 kts 154°
2026-04-21 11:16 44.09193 17.96003 8310 ft 282 kts 154°
2026-04-21 11:16 44.07449 17.97247 8025 ft 282 kts 154°
2026-04-21 11:16 44.05704 17.98490 7733 ft 281 kts 154°
2026-04-21 11:16 44.03967 17.99726 7473 ft 280 kts 154°
2026-04-21 11:17 44.02251 18.00945 7261 ft 271 kts 154°
2026-04-21 11:17 44.00553 18.01932 6928 ft 260 kts 161°
2026-04-21 11:17 43.98869 18.02688 6669 ft 249 kts 162°
2026-04-21 11:17 43.97243 18.03416 6376 ft 242 kts 161°
2026-04-21 11:18 43.95662 18.04140 6091 ft 237 kts 161°
2026-04-21 11:18 43.94101 18.04866 5826 ft 237 kts 160°
2026-04-21 11:18 43.92678 18.05955 5527 ft 235 kts 131°
2026-04-21 11:18 43.91857 18.07862 5333 ft 226 kts 115°
2026-04-21 11:19 43.91153 18.09785 5065 ft 220 kts 115°
2026-04-21 11:19 43.90466 18.11651 4798 ft 214 kts 115°
2026-04-21 11:19 43.89801 18.13452 4578 ft 205 kts 115°
2026-04-21 11:19 43.89172 18.15183 4369 ft 196 kts 113°
2026-04-21 11:20 43.88594 18.16810 4182 ft 180 kts 116°
2026-04-21 11:20 43.88052 18.18260 3965 ft 166 kts 116°
2026-04-21 11:20 43.87526 18.19657 3750 ft 163 kts 116°
2026-04-21 11:20 43.87003 18.21045 3526 ft 161 kts 116°
2026-04-21 11:21 43.86485 18.22422 3281 ft 161 kts 115°
2026-04-21 11:21 43.85971 18.23786 3074 ft 160 kts 114°
2026-04-21 11:21 43.85459 18.25151 2839 ft 159 kts 115°
2026-04-21 11:21 43.84950 18.26522 2562 ft 160 kts 115°
2026-04-21 11:22 43.84434 18.27881 2356 ft 159 kts 116°
2026-04-21 11:22 43.83920 18.29232 2111 ft 159 kts 116°
2026-04-21 11:22 43.83415 18.30581 1884 ft 157 kts 115°
2026-04-21 11:22 43.82919 18.31919 1688 ft 156 kts 116°
2026-04-21 11:23 43.82464 18.33138 1687 ft 117 kts 118°
2026-04-21 11:23 43.82193 18.33859 1703 ft 54 kts 117°
2026-04-21 11:23 43.82101 18.34101 1708 ft 17 kts 117°
2026-04-21 11:23 43.82048 18.34243 1707 ft 16 kts 117°
2026-04-21 11:24 43.81997 18.34381 1710 ft 16 kts 117°
2026-04-21 11:24 43.81949 18.34513 1712 ft 15 kts 115°
2026-04-21 11:24 43.81997 18.34614 1715 ft 15 kts 13°
2026-04-21 11:24 43.82090 18.34589 1712 ft 14 kts 320°
2026-04-21 11:25 43.82140 18.34473 1709 ft 14 kts 297°
2026-04-21 11:25 43.82187 18.34347 1709 ft 15 kts 298°
2026-04-21 11:25 43.82234 18.34224 1704 ft 14 kts 296°
2026-04-21 11:25 43.82283 18.34095 1698 ft 16 kts 297°
2026-04-21 11:26 43.82337 18.33947 1692 ft 19 kts 298°
2026-04-21 11:26 43.82402 18.33775 1691 ft 17 kts 298°
2026-04-21 11:26 43.82409 18.33758 1688 ft 3 kts 298°
2026-04-21 11:26 43.82424 18.33716 1686 ft 7 kts 297°
2026-04-21 11:27 43.82471 18.33659 1686 ft 5 kts 16°
2026-04-21 11:27 43.82504 18.33681 1687 ft 4 kts 27°
2026-04-21 11:27 43.82513 18.33688 1685 ft 0 kts 27°